Location: Newark
(43.5288°N, 5.4471°E)
Time: 13:21:19
(UTC+00:00)

ISS - Visible Passes

Search period start: 23 July 2019 00:00
Search period end: 02 August 2019 00:00
Orbit: 409 x 418 km, 51.6° (Epoch: 23 July)

Date Brightness Start Highest point End Pass type
(mag) Time Alt. Az. Time Alt. Az. Time Alt. Az.
23 Jul -0.8 00:13:49 10° NW 00:14:00 11° NW 00:14:00 11° NW visible
23 Jul -1.5 20:10:07 10° WNW 20:13:02 27° NNW 20:15:56 10° NE visible
23 Jul -1.2 21:47:54 10° NW 21:50:28 20° N 21:53:02 10° NE visible
23 Jul -1.4 23:24:35 10° NW 23:25:58 21° NW 23:25:58 21° NW visible
24 Jul -1.1 20:58:23 10° NW 21:00:56 20° N 21:03:29 10° NE visible
24 Jul -1.9 22:35:19 10° NW 22:38:03 30° N 22:38:03 30° N visible
25 Jul -1.2 20:08:46 10° WNW 20:11:24 21° N 20:14:00 10° NE visible
25 Jul -1.7 21:46:02 10° NW 21:48:51 25° NNE 21:50:10 19° NE visible
25 Jul -0.8 23:22:32 10° WNW 23:22:58 13° WNW 23:22:58 13° WNW visible
26 Jul -1.4 20:56:39 10° NW 20:59:19 21° N 21:01:58 10° ENE visible
26 Jul -1.9 22:33:13 10° NW 22:35:07 30° NW 22:35:07 30° NW visible
27 Jul -1.3 20:07:12 10° NW 20:09:45 20° N 20:12:19 10° NE visible
27 Jul -2.6 21:43:56 10° NW 21:47:05 38° NNE 21:47:18 37° NNE visible
28 Jul -2.1 20:54:37 10° NW 20:57:36 29° NNE 20:59:31 17° ENE visible
28 Jul -1.4 22:31:11 10° WNW 22:32:20 20° WNW 22:32:20 20° WNW visible
29 Jul -1.7 20:05:16 10° NW 20:08:03 23° NNE 20:10:50 10° ENE visible
29 Jul -3.2 21:41:47 10° NW 21:44:34 57° NW 21:44:34 57° NW visible
30 Jul -3.1 20:52:26 10° NW 20:55:42 49° NNE 20:56:49 33° E visible
30 Jul -0.8 22:29:27 10° W 22:29:38 11° W 22:29:38 11° W visible
31 Jul -2.5 20:03:06 10° NW 20:06:13 35° NNE 20:09:07 11° E visible
31 Jul -2.3 21:39:46 10° WNW 21:41:56 31° W 21:41:56 31° W visible
01 Aug -3.8 20:50:16 10° WNW 20:53:36 73° SW 20:54:15 52° SSE visible
